Flag for U.S.A. Weather past 2 weeks in San Bernardino, California, U.S.A.

Now
93 °F

Sunny.


Feels Like: 94 °F
Forecast: 74 / 95 °F
Wind: No wind

Location: Riverside Municipal Airport

Current Time: Sep 16, 2014 at 8:38:11 PM

Latest Report: Sep 16, 2014 at 7:53 PM


Visibility: 10 mi

Pressure: 29.70 "Hg

Humidity: 36%

Dew point: 62 °F

Location of San BernardinoLocation

Historic Weather in San Bernardino — Graph

°F

San Bernardino temperature yesterday

Maximum temperature yesterday: 107 °F (at 1:53 PM)
Minimum temperature yesterday: 75 °F (at 6:53 AM)
Average temperature yesterday: 90 °F

Past Weeks' High & Low Weather Summary

 TemperatureHumidityPressure
High107 °F (Sep 14, 1:53 PM)94% (Sep 2, 5:53 AM)29.90 "Hg (Sep 2, 5:53 AM)
Low62 °F (Sep 5, 6:53 AM)13% (Sep 14, 1:53 PM)29.63 "Hg (Sep 14, 3:53 PM)
Average81 °F48%29.77 "Hg
* Reported Sep 1 6:53 PM — Sep 16 6:53 PM, San Bernardino, Weather by CustomWeather, © 2014

Note: Actual official high and low records may vary slightly from our data, if they occured in-between our weather recording intervals... More about our weather records

Advertising

San Bernardino weather history for previous 24 hours

 ConditionsComfort  
Time TempWeatherWind HumidityBarometerVisibility
6:53 PM
Sep 16
94 °FSunny.No wind35%29.68 "Hg10 mi
5:53 PM96 °FScattered clouds.5 mph32%29.68 "Hg10 mi
4:53 PM94 °FPartly sunny.6 mph33%29.68 "Hg10 mi
3:53 PM90 °FThundershowers. Partly sunny.15 mph42%29.69 "Hg10 mi
2:53 PM106 °FThundershowers. Sunny.14 mph19%29.64 "Hg10 mi
1:53 PM107 °FScattered clouds.No wind18%29.66 "Hg10 mi
12:53 PM104 °FSunny.No wind21%29.69 "Hg10 mi
11:53 AM103 °FSunny.9 mph27%29.71 "Hg10 mi
10:53 AM99 °FSunny.12 mph33%29.74 "Hg10 mi
9:53 AM95 °FSunny.6 mph36%29.75 "Hg10 mi
8:53 AM89 °FSunny.No wind39%29.76 "Hg10 mi
7:53 AM82 °FSunny.3 mph44%29.76 "Hg10 mi
6:53 AM78 °FClear.No wind50%29.75 "Hg10 mi
5:53 AM75 °FClear.5 mph58%29.75 "Hg10 mi
4:53 AM79 °FClear.No wind47%29.73 "Hg10 mi
3:53 AM78 °FClear.3 mph50%29.74 "Hg10 mi
2:53 AM80 °FClear.No wind44%29.75 "Hg10 mi
1:53 AM80 °FClear.3 mph45%29.75 "Hg10 mi
12:53 AM83 °FClear.No wind40%29.75 "Hg10 mi
11:53 PM
Sep 15
86 °FClear.No wind35%29.75 "Hg10 mi
10:53 PM86 °FClear.No wind36%29.75 "Hg10 mi
9:53 PM89 °FClear.3 mph30%29.75 "Hg10 mi
8:53 PM90 °FClear.6 mph28%29.74 "Hg10 mi
Weather by CustomWeather, © 2014

See weather overviewHow to use our weather pages